星链-36852(STARLINK-36852)

导读

STARLINK-36852(NORAD编号67933)是美国SpaceX公司星链(Starlink)星座中的一颗一代低轨互联网通信卫星,属于SpaceX大规模近地轨道卫星组网计划的组成部分。星链项目旨在为全球提供覆盖广、容量大、时延低的高速卫星互联网接入服务,该卫星原运行轨道高度为550公里,2026年SpaceX为提升太空安全,将包含该卫星在内的4400颗星链卫星轨道高度降至480公里,降低故障后碰撞与太空碎片风险,助力规避近地轨道凯斯勒效应风险。

基本信息
目录编号:
67933
目录名称:
STARLINK-36852
国际标识:
2026-037B
轨道中心:
EARTH
卫星名称:
星链-36852
卫星全名:
星链-36852(STARLINK-36852)
卫星状态:
在轨 (已飞行192 天)
发射日期:
2026-02-24 UTC
国别 :
美国 (US)
星等 :
--
轨道信息
数据来源 国际轨道数据 AOE轨道数据
星历时间 2026-09-03T11:08:03+0800
1天前
查看轨道信息
2026-09-01T08:00:00+0800
3天前
查看轨道信息
半长轴 6861.187km 6861.173km
偏心率 0.0001268 0.0001668
轨道倾角 43.003° 43.002°
近地点辐角 255.745° 278.558°
升交点赤经 269.025° 281.058°
平近点角 104.326° 231.065°
近地点 482.18km 481.891km
远地点 483.92km 484.181km
周期 94.267分钟 94.266分钟
每日圈数 15.275798 15.275845
详细信息
固有亮度:
5
最大亮度:
2.5
卫星平台:
Starlink V1.0
覆盖范围:
全球
运营商:
太空探索技术公司
运营商所在国:
美国
制造商(研发单位):
太空探索技术公司
制造商所在国:
美国
使用方式:
暂无
卫星简介
Starlink 计划是 SpaceX 推出的全球卫星互联网项目,通过发射低轨道卫星,为全球尤其是偏远地区提供高速、低延迟的互联网服务。自 2019 年起,Starlink 已部署数千颗卫星,旨在缩小全球数字鸿沟,推动互联网普及。该项目还为军事、航空等行业提供通信支持,带来广泛经济效益。
2D轨道图
3D轨道图
轨道高度分析图
轨道倾角分析图
轨道综合分析图
查看轨道综合分析图
交会数据列表
事件ID 空间交会对象 最接近时刻(TCA) 交会距离 交会风险概率(CRP) 交会风险指数(CRI) 操作
CDM_260907-035105-919706-793321
2026-09-07T
03:51:25+0000
0.501 km
远距离
1.402924E-4 高风险 0.78
CDM_260907-021705-919706-793321
2026-09-07T
02:17:16+0000
0.743 km
远距离
4.665811E-5 中风险 0.68
CDM_260829-125406-746406-793321
2026-08-29T
12:54:49+0000
0.553 km
远距离
3.78852E-5 中风险 0.67
CDM_260907-004305-919706-793321
2026-09-07T
00:43:06+0000
1.895 km
极远距离
2.208963E-6 低风险 0.42
CDM_260829-112006-746406-793321
2026-08-29T
11:20:40+0000
1.772 km
极远距离
9.427919E-7 极低风险 0.34